Location: Duac?
(36.9744°N, 30.6500°E)
Time: 06:21:38
(UTC+00:00)

COSMOS 2455 - Pass Details

Date: 05 August 2024
Orbit: 898 x 911 km, 67.2° (Epoch: 10 September)

Event Time Altitude Azimuth Distance (km) Brightness Sun altitude
Rises 19:41:33 0° 322° (NW) 3,546 7.3 -26.8°
Reaches altitude 10° 19:44:18 10° 313° (NW) 2,600 6.2 -27.1°
Maximum altitude 19:49:33 32° 252° (WSW) 1,509 4.1 -27.8°
Enters shadow 19:50:59 29° 226° (SW) 1,614 4.0 -28.0°
